Regional Weather Roundup
Issued by NWS

Home | Current Version | Previous Version | Text Only | Print | Product List | Glossary Off
Versions: 1 2 3 4 5 6 7 8 9 10 11 12 13 14 15 16 17 18 19 20 21 22 23 24 25 26 27 28 29 30 31 32 33 34 35 36 37 38 39 40 41 42 43 44 45 46 47 48 49 50

000
ASUS44 KMEG 182310
RWRTN
TENNESSEE HOURLY STATE WEATHER ROUNDUP
NATIONAL WEATHER SERVICE MEMPHIS TN
600 PM CDT FRI AUG 18 2017

TNZ002-004-019-021-049-052-054-088>092-190000-
WEST TENNESSEE

CITY           SKY/WX    TMP DP  RH WIND       PRES   REMARKS
MEMPHIS INTL   MOSUNNY   90  66  45 NW5       29.96F HX  92
NWS MEMPHIS      N/A     91 N/A N/A MISG        N/A
JACKSON        SUNNY     87  63  44 VRB5      29.97S
DYERSBURG      SUNNY     86  69  56 SW3       29.97S HX  90
SOMERVILLE     SUNNY     88  66  48 CALM      29.96F HX  90
COVINGTON      SUNNY     88  63  42 CALM      29.96S
UNION CITY     SUNNY     86  70  58 CALM      29.95S HX  90
BOLIVAR        SUNNY     86  64  48 CALM      29.97S
PARIS          SUNNY     84  66  54 CALM      29.96S
HUNTINGDON     SUNNY     86  66  51 W5        29.96S
LEXINGTON      SUNNY     86  66  51 CALM      29.96F
SELMER         SUNNY     86  63  45 CALM      29.98S
SAVANNAH       SUNNY     86  64  48 NW3       29.96S
$$

TNZ008-025-027-028-033-062-065-066-190000-
NORTH MIDDLE TENNESSEE

CITY           SKY/WX    TMP DP  RH WIND       PRES   REMARKS
NASHVILLE      MOSUNNY   86  62  44 W8        29.97S
PORTLAND       SUNNY     82  66  57 CALM      29.97S
CLARKSVILLE    SUNNY     84  63  49 W7        29.96S
SMYRNA         SUNNY     86  66  51 N7        29.98R
COOKEVILLE     SUNNY     82  66  57 CALM      29.98S
GALLATIN       SUNNY     84  64  51 VRB3      29.99S
CROSSVILLE     SUNNY     79  63  57 W6        30.03S
$$

TNZ061-075-076-078-094-096-097-190000-
SOUTH MIDDLE TENNESSEE

CITY           SKY/WX    TMP DP  RH WIND       PRES   REMARKS
FAYETTEVILLE   SUNNY     84  64  51 NW6       29.98S
TULLAHOMA      SUNNY     82  63  51 W7        30.00S
WINCHESTER     SUNNY     84  64  51 NW6       29.98S
MCMINNVILLE      N/A     82  66  57 NW5       29.99S
COLUMBIA       SUNNY     86  64  48 CALM      29.96S
SHELBYVILLE    MOSUNNY   84  66  54 NW9       29.98R
$$

TNZ017-018-042-046-047-190000-
NORTHEAST TENNESSEE

CITY           SKY/WX    TMP DP  RH WIND       PRES   REMARKS
TRI CITIES     PTSUNNY   80  72  76 SW7       29.96S
ELIZABETHTON   CLOUDY    77  72  83 SW6G13    29.97R HAZE
$$

TNZ012-013-036-069-073-074-190000-
CENTRAL EAST TENNESSEE

CITY           SKY/WX    TMP DP  RH WIND       PRES   REMARKS
KNOXVILLE      MOSUNNY   85  63  47 W7        29.95R
OAK RIDGE      SUNNY     87  60  40 W6        29.97R
DOWNTOWN KNOXV SUNNY     86  63  45 VRB7      29.93S
GATLINBURG     SUNNY     86  64  48 W7        29.94S
MORRISTOWN     SUNNY     84  64  51 NW10G16   29.95R
JACKSBORO      SUNNY     82  63  51 CALM      30.00R
$$

TNZ083-085-099-190000-
SOUTHEAST TENNESSEE

CITY           SKY/WX    TMP DP  RH WIND       PRES   REMARKS
CHATTANOOGA    MOSUNNY   87  62  43 W8        29.96R
DAYTON         CLEAR     86  68  54 W7        29.95R
$$

SKY/WX REPORTED AS FAIR MEANS FEW OR NO CLOUDS BELOW
12 THOUSAND FEET.





USA.gov is the U.S. government's official web portal to all federal, state and local government web resources and services.